Location: Newark
(23.3970°S, 47.6010°W)
Time: 13:40:35
(UTC+00:00)

deb Explorer IX - Pass Details

Date: 27 February 2020
Orbit: 547 x 1100 km, 38.8° (Epoch: 04 April)

Event Time Altitude Azimuth Distance (km) Brightness Sun altitude
Rises 21:18:24 0° 314° (NW) 3,049 ? 4.4°
Reaches altitude 10° 21:20:38 10° 317° (NW) 2,213 ? 3.9°
Maximum altitude 21:25:48 64° 37° (NE) 900 ? 2.7°
Drops below altitude 10° 21:31:57 10° 118° (ESE) 2,618 ? 1.3°
Sets 21:34:48 0° 120° (ESE) 3,652 ? 0.6°
